DECAYED

STARLINK-1563, 46078 (Decayed)

Orbit data source: Space-Track

STARLINK-1563, 46078 was a payload satellite owned by SpaceX/Seattle (US) in LEO that was launched on Fri, 07 Aug 2020 UTC via an FALCON 9 launch vehicle from the Air Force Eastern Test Range (AFETR). Payload-class satellites include a variety of spacecraft equipped with specific instruments for various scientific and technological missions. These include communications satellites like Starlink; space stations such as the ISS; scientific satellites like the Hubble; Earth observation satellites from companies like Planet Labs, Umbra, and HawkEye 360; GPS; miniature CubeSats for education and research; and military/defense satellites.

Not visible in the next 10 days
Identifier
46078, 2020-055BD
Orbit
Decayed
Country
Flag of USUS
Related business
Manufacturer
SpaceX/Seattle
Mission
Decayed Commercial Communications
Bus & Motor
STARLINK, Unknown motor
Mass
260 kg wet, ~248 kg dry
Launch date (UTC)
2020-08-07 (6 years ago)
Launch vehicle
FALCON 9
Launch site
Air Force Eastern Test Range (AFETR)
Object type
Payload
Rocket body
Debris
Shape & HBR
Box + 1 Pan, 10.1 m
Radar Cross Section
13.562 m², Large (>1 m²)

Expand to show TLE details & history
Last TLE update: 1 year ago

TLE from 1 year ago
0 STARLINK-1563
1 46078U 20055BD  25096.05728102  .16394049  12563-4  73325-3 0  9994
2 46078  53.0258 128.7310 0008275 331.6425 115.7367 16.42778523258491
Epoch: 2025-04-06T01:22Z
TLE epoch observation values (Epoch: 2025-04-06T01:22:29.080Z)
Latitude
53.11009°
Longitude
-0.69824°
Altitude
167.232 km
Speed
7.811 km/s
True Right ascension
14h 18m 03s
True Declination
52° 55' 48"
Sunlit
Object was in full shadow at epoch
Visualization orbit readout
Latitude
Unknown
Longitude
Unknown
Altitude
Unknown
Speed
Unknown
Apparent Right ascension
Unknown
Apparent Declination
Unknown
Sunlit
N/A
Visualization observer readout
Local Sidereal Time
21:38:53
Azimuth
Unknown
Elevation
Unknown
Doppler factor
Unknown
Orbital elements
Apogee altitude
164.122 km
Perigee altitude
153.304 km
Semi-major axis
6,536.85 km
Eccentricity
0.00083
Inclination
53.0258°
RAAN
128.731°
Arg. of periapsis
331.6425°
True anomaly
115.82208°
Mean anomaly
115.7367°
Eccentric anomaly
115.77939°
Mean motion
4.10668 °/min
Orbital period
87.66 mins
BSTAR
0.00073325
Loading maneuver chart data...
Computing Atmospheric mass density...

Documentation

Showing up to 5 results
|